CAPE
48 10 0 0 14 0 0 0 0 0 0 0 0 0 0 0 0 0 678 736 684 686 558 1030 876 786 702 598 408 316 402 806 362 554 796 650 778 1080 1016 1306 1330 1528 1692 1820
28 0 12 18 34 2 0 0 0 0 0 0 0 0 0 0 0 82 722 628 694 554 500 686 956 782 606 546 408 336 242 206 340 318 384 688 1134 1124 1354 1496 1524 1642 1794 1718
20 30 32 28 22 2 0 0 0 0 0 0 0 0 0 2 332 4 508 368 500 582 624 558 566 248 294 302 126 32 24 72 6 300 10 160 510 802 934 1270 1342 1508 1382 1652
12 0 14 30 16 0 0 0 0 0 0 0 0 0 0 0 350 316 208 430 374 482 440 254 176 230 164 108 50 54 48 210 140 74 26 88 354 528 546 822 734 766 840 938
0 44 20 18 10 22 0 0 0 0 0 0 0 0 0 0 102 298 304 292 490 516 322 354 362 288 266 242 236 192 88 100 102 72 44 48 324 316 418 390 592 570 524 656
6 8 2 2 10 20 0 0 0 0 0 0 0 0 0 0 0 110 348 310 434 550 488 306 280 250 300 168 196 228 154 98 6 0 62 142 162 198 132 190 358 366 158 96
4 0 0 0 2 10 0 0 0 0 0 0 0 0 0 0 0 60 470 474 328 466 388 318 314 368 368 232 168 96 38 28 186 8 106 180 180 138 126 198 246 180 46 36
0 0 0 0 0 0 0 0 0 0 0 0 0 0 0 0 0 2 504 752 756 584 510 534 628 414 320 232 180 92 36 42 192 76 140 72 46 44 92 132 108 32 6 70
12 2 0 0 0 0 0 0 0 0 0 0 0 0 0 0 0 26 510 730 946 888 888 876 526 242 188 144 150 110 90 150 88 100 16 4 6 128 92 148 24 6 58 10
6 0 0 0 0 0 0 0 0 0 0 0 0 0 0 0 0 54 122 324 380 612 622 608 380 276 372 216 238 122 134 178 108 48 30 132 216 202 108 44 22 74 18 0
12 10 0 0 0 0 0 0 0 0 0 0 0 0 0 10 0 0 22 38 46 174 386 440 382 424 552 566 762 130 126 78 38 108 232 302 164 46 34 84 126 40 0 0
2 16 22 0 0 0 0 0 0 0 0 0 0 0 0 214 160 0 0 0 6 62 194 216 550 752 970 1234 950 502 186 58 222 316 224 98 6 0 40 142 88 0 0 0
4 20 0 0 0 0 0 0 0 0 0 0 0 0 0 328 154 16 0 0 0 18 164 268 606 890 860 826 742 492 288 272 298 168 88 96 16 14 76 46 0 0 0 0
14 4 8 0 0 0 0 0 0 0 0 0 0 0 0 300 96 30 0 50 58 180 272 900 794 762 1060 698 498 296 212 252 138 112 84 62 62 56 54 2 0 0 0 0
112 40 80 92 34 0 0 0 6 0 0 4 0 0 432 414 364 402 194 314 490 548 728 918 1004 1008 716 404 372 220 168 188 130 40 28 4 0 2 0 0 0 0 0 0
2 50 98 62 20 0 0 2 0 0 8 26 190 292 408 700 548 592 400 456 532 524 470 862 984 832 416 316 262 198 144 110 18 10 6 0 0 0 0 0 0 0 0 0
20 32 46 46 54 34 0 0 0 2 6 12 66 228 438 584 448 428 446 524 520 526 538 634 702 586 426 304 198 114 52 8 2 0 0 0 0 0 0 0 0 0 0 0
40 6 40 52 48 0 10 254 2 4 6 58 242 264 330 290 232 178 334 360 502 608 776 780 602 532 410 280 150 50 68 26 28 0 2 4 8 10 4 6 2 0 0 0
48 14 0 6 10 34 234 216 76 8 96 256 282 252 202 136 40 0 150 106 144 370 576 566 556 470 350 226 142 112 80 82 68 48 46 34 26 16 14 14 0 0 0 0
46 30 0 22 0 32 100 246 402 260 48 300 158 240 108 0 0 4 130 182 274 340 344 458 402 276 210 134 106 126 112 92 98 84 86 30 10 10 2 2 0 0 0 0
64 40 14 18 8 8 82 100 266 56 0 228 128 82 38 6 6 8 140 186 82 106 106 128 138 190 200 176 138 120 92 54 28 20 18 6 12 24 2 0 0 0 0 0
26 14 34 34 0 22 22 54 232 106 138 262 44 70 126 36 4 10 28 0 16 44 162 146 206 80 68 54 42 30 48 48 24 50 38 10 0 0 0 0 0 0 0 0
66 84 40 12 12 16 16 42 32 202 214 256 90 144 148 18 0 0 2 10 0 0 0 0 0 0 0 10 22 6 4 12 24 0 0 0 0 0 0 0 0 0 0 0
0 78 26 2 18 24 32 70 80 126 196 250 126 116 34 2 0 0 10 0 0 0 0 0 0 0 0 0 2 2 0 0 0 0 0 0 0 0 0 0 0 0 0 0
0 0 4 0 14 8 50 24 116 126 142 212 168 44 14 6 0 2 0 0 0 0 0 0 0 0 0 0 0 0 0 0 0 0 0 0 0 0 0 0 0 0 0 0
0 2 4 4 8 6 12 18 44 42 108 50 14 2 28 66 0 0 2 0 0 0 0 0 0 0 0 0 0 0 0 0 0 0 0 0 0 0 0 0 0 0 0 0
CIN
-1 -0 -0 -0 -0 -0 -0 -0 -0 -0 -0 -0 -0 -0 -0 -0 -0 -0 -163 -149 -143 -83 -189 -111 -114 -173 -52 -47 -65 -126 -151 -13 -41 -1 -28 -84 -39 -22 -77 -117 -121 -71 -41 -20
-4 -0 -11 -9 -4 -2 -0 -0 -0 -0 -0 -0 -0 -0 -0 -0 -0 -309 -165 -122 -118 -109 -47 -110 -74 -45 -50 -171 -39 -49 -111 -45 -13 -43 -9 -53 -52 -59 -21 -55 -52 -36 -23 -16
-3 -17 -15 -1 -8 -0 -0 -0 -0 -0 -0 -0 -0 -0 -0 -61 -345 -65 -208 -188 -132 -86 -88 -58 -40 -103 -88 -51 -46 -19 -260 -342 -94 -46 -21 -1 -2 -46 -54 -33 -23 -16 -13 -9
-3 -1 -3 -2 -3 -0 -0 -0 -0 -0 -0 -0 -0 -0 -0 -0 -295 -355 -353 -236 -104 -38 -31 -382 -494 -481 -432 -448 -22 -23 -77 -228 -65 -43 -219 -43 -0 -10 -43 -36 -31 -34 -30 -16
-0 -22 -12 -8 -9 -0 -0 -0 -0 -0 -0 -0 -0 -0 -0 -0 -351 -392 -445 -346 -311 -353 -369 -196 -59 -42 -130 -367 -244 -205 -158 -94 -49 -22 -140 -103 -14 -7 -4 -14 -15 -25 -25 -5
-26 -13 -2 -1 -2 -0 -0 -0 -0 -0 -0 -0 -0 -0 -0 -0 -0 -604 -416 -401 -339 -346 -329 -270 -231 -64 -59 -183 -311 -210 -147 -89 -353 -0 -72 -35 -27 -1 -4 -11 -36 -37 -23 -22
-11 -0 -1 -0 -0 -0 -0 -0 -0 -0 -0 -0 -0 -0 -0 -0 -0 -499 -426 -302 -293 -288 -327 -54 -61 -79 -82 -100 -186 -151 -137 -223 -200 -300 -95 -37 -23 -10 -10 -6 -14 -9 -23 -27
-1 -0 -0 -0 -0 -0 -0 -0 -0 -0 -0 -0 -0 -0 -0 -0 -0 -45 -322 -195 -87 -60 -97 -121 -130 -177 -162 -129 -143 -158 -153 -333 -218 -315 -139 -78 -12 -1 -21 -9 -14 -15 -14 -30
-13 -18 -0 -0 -0 -0 -0 -0 -0 -0 -0 -0 -0 -0 -0 -0 -0 -458 -263 -168 -113 -103 -126 -146 -139 -172 -298 -177 -83 -390 -354 -148 -157 -139 -259 -136 -169 -3 -21 -3 -26 -38 -28 -40
-14 -15 -0 -0 -0 -0 -0 -0 -0 -0 -0 -0 -0 -0 -0 -0 -0 -367 -386 -269 -256 -159 -161 -155 -184 -106 -254 -168 -296 -296 -225 -39 -24 -114 -94 -26 -14 -5 -15 -24 -17 -11 -20 -0
-44 -49 -0 -7 -0 -0 -0 -0 -0 -0 -0 -0 -0 -0 -0 -199 -0 -0 -425 -409 -409 -281 -195 -223 -107 -133 -181 -98 -18 -221 -201 -109 -110 -76 -32 -6 -9 -32 -24 -3 -6 -18 -0 -0
-23 -41 -43 -0 -0 -0 -0 -0 -0 -0 -0 -0 -0 -0 -0 -266 -387 -0 -0 -0 -444 -311 -200 -211 -92 -116 -32 -0 -2 -22 -62 -106 -41 -29 -36 -46 -81 -2 -19 -0 -7 -0 -0 -0
-19 -37 -0 -0 -0 -1 -0 -0 -0 -0 -0 -0 -0 -0 -0 -210 -375 -198 -0 -0 -0 -355 -177 -115 -197 -40 -47 -46 -39 -19 -46 -34 -29 -40 -36 -49 -82 -55 -6 -6 -0 -0 -0 -0
-64 -15 -6 -0 -0 -0 -0 -0 -0 -0 -0 -0 -0 -0 -0 -174 -295 -407 -12 -352 -414 -278 -282 -178 -159 -91 -22 -44 -69 -66 -35 -18 -33 -33 -53 -45 -43 -35 -30 -14 -0 -0 -0 -0
-64 -19 -26 -44 -13 -0 -0 -0 -6 -3 -0 -40 -0 -0 -61 -87 -143 -161 -325 -472 -380 -294 -210 -141 -113 -90 -72 -43 -53 -71 -42 -21 -22 -33 -28 -9 -1 -9 -0 -0 -0 -0 -0 -0
-35 -18 -60 -11 -12 -0 -0 -7 -0 -0 -93 -132 -103 -93 -103 -51 -113 -115 -217 -230 -131 -67 -60 -147 -105 -99 -29 -65 -65 -71 -55 -21 -1 -16 -4 -0 -0 -0 -0 -0 -0 -0 -0 -0
-37 -65 -47 -15 -30 -13 -0 -0 -0 -105 -132 -66 -73 -197 -105 -69 -123 -122 -138 -117 -121 -73 -261 -193 -174 -140 -119 -81 -46 -17 -5 -0 -22 -0 -0 -0 -0 -0 -0 -0 -0 -0 -0 -0
-20 -89 -43 -19 -32 -0 -21 -84 -8 -116 -150 -250 -215 -158 -117 -85 -166 -112 -92 -77 -50 -144 -130 -109 -130 -75 -97 -92 -82 -105 -7 -8 -3 -1 -29 -34 -4 -3 -3 -2 -1 -0 -0 -0
-27 -107 -0 -9 -3 -25 -50 -55 -180 -137 -213 -186 -154 -103 -63 -79 -100 -1 -46 -53 -60 -155 -142 -128 -127 -116 -125 -106 -93 -64 -43 -17 -21 -11 -1 -4 -8 -7 -2 -0 -1 -0 -0 -0
-75 -33 -0 -10 -0 -21 -42 -112 -82 -160 -175 -120 -173 -88 -38 -2 -0 -41 -23 -65 -70 -79 -87 -87 -88 -89 -73 -43 -41 -5 -0 -7 -14 -0 -0 -0 -7 -15 -11 -5 -0 -0 -0 -0
-25 -17 -1 -14 -3 -15 -39 -62 -55 -40 -0 -222 -204 -178 -26 -22 -43 -103 -69 -37 -88 -67 -70 -62 -44 -36 -6 -3 -0 -0 -0 -1 -3 -12 -8 -2 -4 -16 -0 -0 -0 -0 -0 -0
-22 -5 -6 -2 -6 -12 -103 -118 -63 -112 -136 -239 -194 -130 -88 -96 -70 -126 -93 -0 -114 -37 -10 -10 -5 -17 -6 -1 -9 -2 -0 -0 -4 -0 -5 -5 -1 -4 -0 -0 -0 -0 -0 -0
-8 -1 -2 -9 -11 -58 -29 -136 -191 -158 -287 -251 -61 -156 -104 -80 -0 -118 -172 -157 -0 -0 -0 -0 -0 -0 -0 -0 -0 -0 -20 -0 -0 -1 -0 -0 -0 -0 -0 -0 -0 -0 -0 -0
-0 -8 -7 -3 -4 -26 -72 -104 -121 -134 -262 -216 -176 -100 -60 -21 -0 -29 -163 -0 -0 -0 -0 -0 -0 -0 -0 -0 -0 -0 -0 -0 -0 -0 -0 -0 -0 -0 -0 -0 -0 -0 -0 -0
-0 -0 -8 -0 -2 -25 -52 -67 -107 -122 -96 -125 -86 -77 -167 -39 -8 -80 -0 -0 -0 -0 -0 -0 -0 -0 -0 -0 -0 -0 -0 -0 -0 -0 -0 -0 -0 -0 -0 -0 -0 -0 -0 -0
-0 -0 -0 -1 -16 -7 -11 -25 -64 -58 -83 -57 -92 -96 -133 -58 -0 -0 -50 -0 -0 -0 -0 -0 -0 -0 -0 -0 -0 -0 -0 -0 -0 -0 -0 -0 -0 -0 -0 -0 -0 -0 -0 -0
Wind_Speed
nan nan nan nan nan nan nan nan nan nan nan nan nan nan nan nan nan nan 58 61 64 60 54 50 51 53 57 56 56 53 56 64 62 65 58 58 58 53 53 52 47 41 46 46
nan nan nan nan nan nan nan nan nan nan nan nan nan nan nan nan nan nan 55 58 61 62 60 52 49 52 58 53 50 55 56 62 56 63 61 60 59 62 58 55 47 49 58 34
nan nan nan nan nan nan nan nan nan nan nan nan nan nan nan nan 63 nan 59 54 58 55 54 51 49 52 58 51 46 nan nan nan nan 47 nan 38 34 64 53 53 50 58 50 49
nan nan nan nan nan nan nan nan nan nan nan nan nan nan nan nan 57 58 56 54 52 56 57 55 56 55 57 61 nan nan nan 45 50 nan nan nan 30 53 57 56 56 49 51 45
nan nan nan nan nan nan nan nan nan nan nan nan nan nan nan nan 45 41 38 43 44 49 53 53 50 51 54 60 63 59 nan 54 56 nan nan nan 48 43 57 48 45 55 44 32
nan nan nan nan nan nan nan nan nan nan nan nan nan nan nan nan nan 41 33 38 42 41 43 45 50 54 53 61 55 46 47 nan nan nan nan 63 65 73 57 46 36 34 28 nan
nan nan nan nan nan nan nan nan nan nan nan nan nan nan nan nan nan nan 32 31 34 34 36 39 42 47 47 53 51 nan nan nan 56 nan 51 62 47 40 47 26 30 34 nan nan
nan nan nan nan nan nan nan nan nan nan nan nan nan nan nan nan nan nan 38 35 39 39 36 36 40 36 38 47 45 nan nan nan 46 nan 48 nan nan nan nan 27 23 nan nan nan
nan nan nan nan nan nan nan nan nan nan nan nan nan nan nan nan nan nan 39 42 38 40 39 40 38 36 39 42 41 39 nan 41 nan 44 nan nan nan 24 nan 31 nan nan nan nan
nan nan nan nan nan nan nan nan nan nan nan nan nan nan nan nan nan nan 37 32 34 39 41 39 37 35 34 42 41 37 32 33 30 nan nan 49 52 43 36 nan nan nan nan nan
nan nan nan nan nan nan nan nan nan nan nan nan nan nan nan nan nan nan nan nan nan 40 42 38 38 39 36 39 38 38 33 nan nan 35 31 34 46 nan nan nan 32 nan nan nan
nan nan nan nan nan nan nan nan nan nan nan nan nan nan nan 39 35 nan nan nan nan nan 38 34 41 45 50 35 26 32 40 nan 34 30 23 nan nan nan nan 27 nan nan nan nan
nan nan nan nan nan nan nan nan nan nan nan nan nan nan nan 46 48 nan nan nan nan nan 41 41 41 45 39 28 25 30 31 33 32 37 nan nan nan nan nan nan nan nan nan nan
nan nan nan nan nan nan nan nan nan nan nan nan nan nan nan 40 nan nan nan nan nan 38 38 35 39 40 28 25 27 32 34 38 41 41 nan nan nan nan nan nan nan nan nan nan
12 nan nan nan nan nan nan nan nan nan nan nan nan nan 28 31 33 34 36 40 37 39 37 39 39 37 37 34 39 32 33 31 32 nan nan nan nan nan nan nan nan nan nan nan
nan nan nan nan nan nan nan nan nan nan nan nan 18 25 16 18 32 36 40 38 43 37 36 37 30 29 35 34 30 37 35 36 nan nan nan nan nan nan nan nan nan nan nan nan
nan nan nan nan nan nan nan nan nan nan nan nan nan 12 20 22 30 43 44 41 43 47 39 35 34 33 35 33 36 40 nan nan nan nan nan nan nan nan nan nan nan nan nan nan
nan nan nan nan nan nan nan 24 nan nan nan nan 26 23 20 21 28 46 43 34 35 37 40 40 41 43 39 40 43 nan nan nan nan nan nan nan nan nan nan nan nan nan nan nan
nan nan nan nan nan nan 25 26 nan nan nan 27 30 28 25 35 nan nan 42 32 29 34 34 34 33 37 39 41 43 45 nan nan nan nan nan nan nan nan nan nan nan nan nan nan
nan nan nan nan nan nan 21 19 24 24 nan 23 23 27 33 nan nan nan 23 26 33 31 36 38 38 43 43 40 40 43 41 nan nan nan nan nan nan nan nan nan nan nan nan nan
nan nan nan nan nan nan nan 18 19 nan nan 22 22 nan nan nan nan nan 10 21 nan 28 27 32 32 30 32 31 33 36 nan nan nan nan nan nan nan nan nan nan nan nan nan nan
nan nan nan nan nan nan nan nan 17 18 18 18 nan nan 4 nan nan nan nan nan nan nan 21 25 22 nan nan nan nan nan nan nan nan nan nan nan nan nan nan nan nan nan nan nan
nan nan nan nan nan nan nan nan nan 18 10 12 nan 22 20 nan nan nan nan nan nan nan nan nan nan nan nan nan nan nan nan nan nan nan nan nan nan nan nan nan nan nan nan nan
nan nan nan nan nan nan nan nan nan 28 27 21 25 21 nan nan nan nan nan nan nan nan nan nan nan nan nan nan nan nan nan nan nan nan nan nan nan nan nan nan nan nan nan nan
nan nan nan nan nan nan nan nan 19 25 28 27 23 nan nan nan nan nan nan nan nan nan nan nan nan nan nan nan nan nan nan nan nan nan nan nan nan nan nan nan nan nan nan nan
nan nan nan nan nan nan nan nan nan nan 27 nan nan nan nan nan nan nan nan nan nan nan nan nan nan nan nan nan nan nan nan nan nan nan nan nan nan nan nan nan nan nan nan nan
Wind_Direction
nan nan nan nan nan nan nan nan nan nan nan nan nan nan nan nan nan nan 224 231 234 239 243 241 244 250 252 259 252 245 237 235 234 232 235 235 242 242 239 237 241 246 253 250
nan nan nan nan nan nan nan nan nan nan nan nan nan nan nan nan nan nan 226 229 241 240 242 241 247 250 257 262 250 260 241 242 233 239 237 233 236 242 246 252 236 248 243 250
nan nan nan nan nan nan nan nan nan nan nan nan nan nan nan nan 213 nan 223 230 238 250 253 250 249 249 249 256 270 nan nan nan nan 247 nan 206 230 232 237 238 237 238 250 249
nan nan nan nan nan nan nan nan nan nan nan nan nan nan nan nan 215 214 225 232 237 249 248 251 252 257 264 263 nan nan nan 296 288 nan nan nan 254 232 234 228 239 238 244 249
nan nan nan nan nan nan nan nan nan nan nan nan nan nan nan nan 214 223 229 237 239 245 253 256 260 260 261 260 266 269 nan 274 278 nan nan nan 297 267 246 227 241 250 245 244
nan nan nan nan nan nan nan nan nan nan nan nan nan nan nan nan nan 224 231 240 246 249 257 258 257 258 262 262 269 271 270 nan nan nan nan 306 297 283 241 224 236 243 250 nan
nan nan nan nan nan nan nan nan nan nan nan nan nan nan nan nan nan nan 238 236 245 249 254 263 270 274 279 284 283 nan nan nan 287 nan 295 297 275 246 233 229 227 236 nan nan
nan nan nan nan nan nan nan nan nan nan nan nan nan nan nan nan nan nan 229 240 247 253 255 264 272 287 285 281 282 nan nan nan 295 nan 274 nan nan nan nan 230 230 nan nan nan
nan nan nan nan nan nan nan nan nan nan nan nan nan nan nan nan nan nan 232 237 242 255 262 266 276 282 271 266 271 272 nan 289 nan 277 nan nan nan 250 nan 253 nan nan nan nan
nan nan nan nan nan nan nan nan nan nan nan nan nan nan nan nan nan nan 237 239 247 254 263 269 273 271 268 268 268 266 282 285 288 nan nan 282 282 274 251 nan nan nan nan nan
nan nan nan nan nan nan nan nan nan nan nan nan nan nan nan nan nan nan nan nan nan 265 270 272 269 266 258 267 273 268 277 nan nan 291 287 280 272 nan nan nan 283 nan nan nan
nan nan nan nan nan nan nan nan nan nan nan nan nan nan nan 213 212 nan nan nan nan nan 262 262 258 264 265 278 275 281 278 nan 284 273 271 nan nan nan nan 283 nan nan nan nan
nan nan nan nan nan nan nan nan nan nan nan nan nan nan nan 217 218 nan nan nan nan nan 239 249 255 259 268 268 256 253 266 262 256 259 nan nan nan nan nan nan nan nan nan nan
nan nan nan nan nan nan nan nan nan nan nan nan nan nan nan 204 nan nan nan nan nan 241 245 250 249 256 252 256 255 251 252 256 261 260 nan nan nan nan nan nan nan nan nan nan
222 nan nan nan nan nan nan nan nan nan nan nan nan nan 198 210 215 204 211 230 238 246 254 247 245 242 253 245 246 246 249 258 264 nan nan nan nan nan nan nan nan nan nan nan
nan nan nan nan nan nan nan nan nan nan nan nan 215 207 208 225 217 206 201 224 235 234 234 242 249 251 256 257 241 246 239 253 nan nan nan nan nan nan nan nan nan nan nan nan
nan nan nan nan nan nan nan nan nan nan nan nan nan 217 237 238 224 203 203 218 238 245 243 245 244 239 251 252 257 242 nan nan nan nan nan nan nan nan nan nan nan nan nan nan
nan nan nan nan nan nan nan 211 nan nan nan nan 252 243 250 250 257 220 200 206 223 235 240 243 248 251 249 254 250 nan nan nan nan nan nan nan nan nan nan nan nan nan nan nan
nan nan nan nan nan nan 186 209 nan nan nan 252 289 267 256 255 nan nan 193 201 219 239 252 254 254 250 248 250 257 265 nan nan nan nan nan nan nan nan nan nan nan nan nan nan
nan nan nan nan nan nan 176 189 206 235 nan 266 288 290 275 nan nan nan 224 226 239 255 270 258 256 253 246 253 253 263 267 nan nan nan nan nan nan nan nan nan nan nan nan nan
nan nan nan nan nan nan nan 191 195 nan nan 282 290 nan nan nan nan nan 272 238 nan 253 232 242 251 248 251 255 260 260 nan nan nan nan nan nan nan nan nan nan nan nan nan nan
nan nan nan nan nan nan nan nan 200 192 245 296 nan nan 348 nan nan nan nan nan nan nan 239 240 246 nan nan nan nan nan nan nan nan nan nan nan nan nan nan nan nan nan nan nan
nan nan nan nan nan nan nan nan nan 182 224 253 nan 276 283 nan nan nan nan nan nan nan nan nan nan nan nan nan nan nan nan nan nan nan nan nan nan nan nan nan nan nan nan nan
nan nan nan nan nan nan nan nan nan 207 222 240 256 266 nan nan nan nan nan nan nan nan nan nan nan nan nan nan nan nan nan nan nan nan nan nan nan nan nan nan nan nan nan nan
nan nan nan nan nan nan nan nan 206 227 240 238 237 nan nan nan nan nan nan nan nan nan nan nan nan nan nan nan nan nan nan nan nan nan nan nan nan nan nan nan nan nan nan nan
nan nan nan nan nan nan nan nan nan nan 243 nan nan nan nan nan nan nan nan nan nan nan nan nan nan nan nan nan nan nan nan nan nan nan nan nan nan nan nan nan nan nan nan nan